When you browse on this site, cookies collect data to enhance your experience and personalize the content and advertising you see.
Visit our Privacy Policy to learn more. By continuing to use the site, you agree to this use of cookies and data.
  • Em Portugal
  • Lista de países
  • Para 7 dias
  • Temperatura da água
  • Mapas de satélite
  • Mapa do tempo
  • Widgets de tempo
  • user-avatar
    Iniciar Sessão

    Previsão horária em Shishkeevo

    Hoje, 27 Junho, Quinta-feira

    Tempo Temperatura Precipitação Vento Pressão Humidade
    00:00 +14°C° 0 mm 3 m/s 742 mmHg 68%
    01:00 +13°C° 1.7 mm 3 m/s 742 mmHg 78%
    02:00 +13°C° 1.7 mm 4 m/s 742 mmHg 87%
    03:00 +12°C° 1.7 mm 5 m/s 741 mmHg 96%
    04:00 +12°C° 0.5 mm 5 m/s 741 mmHg 96%
    05:00 +13°C° 0.5 mm 5 m/s 740 mmHg 96%
    06:00 +13°C° 0.5 mm 5 m/s 740 mmHg 95%
    07:00 +13°C° 0.4 mm 4 m/s 739 mmHg 94%
    08:00 +13°C° 0.4 mm 3 m/s 739 mmHg 92%
    09:00 +15°C° 0.4 mm 2 m/s 739 mmHg 91%
    10:00 +16°C° 0 mm 1 m/s 739 mmHg 83%
    11:00 +19°C° 0 mm 1 m/s 738 mmHg 76%
    12:00 +20°C° 0 mm 1 m/s 738 mmHg 68%
    13:00 +21°C° 0.1 mm 1 m/s 738 mmHg 66%
    14:00 +21°C° 0.1 mm 1 m/s 738 mmHg 65%
    15:00 +21°C° 0.1 mm 1 m/s 737 mmHg 63%
    16:00 +20°C° 0 mm 2 m/s 737 mmHg 67%
    17:00 +20°C° 0 mm 2 m/s 736 mmHg 71%
    18:00 +19°C° 0 mm 3 m/s 735 mmHg 75%
    19:00 +18°C° 0 mm 4 m/s 735 mmHg 79%
    20:00 +15°C° 0 mm 5 m/s 735 mmHg 83%
    21:00 +14°C° 0 mm 6 m/s 734 mmHg 87%
    22:00 +13°C° 0.6 mm 6 m/s 733 mmHg 89%
    23:00 +11°C° 0.6 mm 6 m/s 732 mmHg 91%

    Amanhã, 28 Junho, Sexta-feira

    Tempo Temperatura Precipitação Vento Pressão Humidade
    00:00 +10°C° 0.6 mm 7 m/s 731 mmHg 94%
    01:00 +10°C° 1.3 mm 7 m/s 731 mmHg 95%
    02:00 +10°C° 1.3 mm 7 m/s 730 mmHg 95%
    03:00 +10°C° 1.3 mm 8 m/s 729 mmHg 96%
    04:00 +11°C° 4.6 mm 7 m/s 728 mmHg 97%
    05:00 +11°C° 4.6 mm 6 m/s 727 mmHg 97%
    06:00 +12°C° 4.6 mm 5 m/s 727 mmHg 98%
    07:00 +14°C° 3.6 mm 5 m/s 726 mmHg 97%
    08:00 +15°C° 3.6 mm 4 m/s 726 mmHg 96%
    09:00 +18°C° 3.6 mm 4 m/s 726 mmHg 96%
    10:00 +19°C° 1.1 mm 4 m/s 726 mmHg 93%
    11:00 +20°C° 1.1 mm 4 m/s 725 mmHg 89%
    12:00 +21°C° 1.1 mm 5 m/s 725 mmHg 86%
    13:00 +22°C° 0.7 mm 5 m/s 725 mmHg 85%
    14:00 +22°C° 0.7 mm 5 m/s 725 mmHg 83%
    15:00 +22°C° 0.7 mm 5 m/s 725 mmHg 81%
    16:00 +21°C° 0.3 mm 5 m/s 725 mmHg 81%
    17:00 +21°C° 0.3 mm 4 m/s 725 mmHg 81%
    18:00 +20°C° 0.3 mm 4 m/s 725 mmHg 82%
    19:00 +19°C° 0.3 mm 4 m/s 725 mmHg 86%
    20:00 +17°C° 0.3 mm 3 m/s 725 mmHg 90%
    21:00 +14°C° 0.3 mm 3 m/s 726 mmHg 94%
    22:00 +14°C° 0 mm 3 m/s 726 mmHg 94%
    23:00 +13°C° 0 mm 3 m/s 726 mmHg 95%

    Depois de amanhã, 29 Junho, Sábado

    Tempo Temperatura Precipitação Vento Pressão Humidade
    00:00 +13°C° 0 mm 3 m/s 726 mmHg 95%
    01:00 +12°C° 0 mm 3 m/s 726 mmHg 96%
    02:00 +12°C° 0 mm 3 m/s 726 mmHg 96%
    03:00 +11°C° 0 mm 3 m/s 726 mmHg 96%
    04:00 +12°C° 0 mm 4 m/s 726 mmHg 96%
    05:00 +12°C° 0 mm 4 m/s 726 mmHg 95%
    06:00 +13°C° 0 mm 5 m/s 725 mmHg 94%
    07:00 +13°C° 0.3 mm 5 m/s 725 mmHg 92%
    08:00 +13°C° 0.3 mm 5 m/s 725 mmHg 90%
    09:00 +13°C° 0.3 mm 6 m/s 725 mmHg 89%
    10:00 +13°C° 0.2 mm 5 m/s 726 mmHg 89%
    11:00 +13°C° 0.2 mm 5 m/s 726 mmHg 89%
    12:00 +13°C° 0.2 mm 5 m/s 726 mmHg 90%
    13:00 +14°C° 0.3 mm 5 m/s 727 mmHg 89%
    14:00 +14°C° 0.3 mm 6 m/s 727 mmHg 88%
    15:00 +15°C° 0.3 mm 6 m/s 728 mmHg 87%
    16:00 +14°C° 0.1 mm 6 m/s 728 mmHg 88%
    17:00 +14°C° 0.1 mm 6 m/s 728 mmHg 89%
    18:00 +13°C° 0.1 mm 6 m/s 729 mmHg 90%
    19:00 +13°C° 0 mm 6 m/s 729 mmHg 90%
    20:00 +11°C° 0 mm 6 m/s 730 mmHg 91%
    21:00 +11°C° 0 mm 6 m/s 731 mmHg 91%
    22:00 +10°C° 0 mm 5 m/s 731 mmHg 91%
    23:00 +10°C° 0 mm 5 m/s 731 mmHg 91%

    30 Junho, Domingo

    Tempo Temperatura Precipitação Vento Pressão Humidade
    00:00 +10°C° 0 mm 5 m/s 732 mmHg 91%
    01:00 +9°C° 0 mm 5 m/s 732 mmHg 91%
    02:00 +10°C° 0 mm 4 m/s 732 mmHg 91%
    03:00 +10°C° 0 mm 4 m/s 733 mmHg 91%
    04:00 +10°C° 0 mm 4 m/s 733 mmHg 91%
    05:00 +10°C° 0 mm 4 m/s 733 mmHg 90%
    06:00 +10°C° 0 mm 4 m/s 734 mmHg 90%
    07:00 +11°C° 0 mm 3 m/s 734 mmHg 88%
    08:00 +12°C° 0 mm 3 m/s 734 mmHg 85%
    09:00 +13°C° 0 mm 3 m/s 735 mmHg 83%
    10:00 +13°C° 0.1 mm 3 m/s 735 mmHg 82%
    11:00 +14°C° 0.1 mm 3 m/s 735 mmHg 80%
    12:00 +15°C° 0.1 mm 2 m/s 735 mmHg 79%
    13:00 +15°C° 0.2 mm 2 m/s 735 mmHg 77%
    14:00 +16°C° 0.2 mm 2 m/s 735 mmHg 76%
    15:00 +16°C° 0.2 mm 2 m/s 735 mmHg 74%
    16:00 +16°C° 0.2 mm 2 m/s 736 mmHg 76%
    17:00 +16°C° 0.2 mm 2 m/s 736 mmHg 77%
    18:00 +16°C° 0.2 mm 1 m/s 736 mmHg 79%
    19:00 +15°C° 0.2 mm 1 m/s 736 mmHg 84%
    20:00 +14°C° 0.2 mm 1 m/s 736 mmHg 88%
    21:00 +12°C° 0.2 mm 1 m/s 736 mmHg 92%
    22:00 +12°C° 0 mm 2 m/s 736 mmHg 94%
    23:00 +10°C° 0 mm 2 m/s 736 mmHg 95%

    1 Julho, Segunda-feira

    Tempo Temperatura Precipitação Vento Pressão Humidade
    00:00 +10°C° 0 mm 2 m/s 736 mmHg 97%
    01:00 +10°C° 0 mm 2 m/s 737 mmHg 97%
    02:00 +10°C° 0 mm 2 m/s 737 mmHg 97%
    03:00 +10°C° 0 mm 2 m/s 737 mmHg 97%
    04:00 +10°C° 0 mm 2 m/s 737 mmHg 96%
    05:00 +11°C° 0 mm 3 m/s 737 mmHg 95%
    06:00 +11°C° 0 mm 3 m/s 737 mmHg 94%
    07:00 +12°C° 0 mm 3 m/s 737 mmHg 90%
    08:00 +13°C° 0 mm 3 m/s 737 mmHg 87%
    09:00 +16°C° 0 mm 3 m/s 737 mmHg 83%
    10:00 +17°C° 0 mm 3 m/s 737 mmHg 79%
    11:00 +18°C° 0 mm 3 m/s 737 mmHg 75%
    12:00 +19°C° 0 mm 2 m/s 737 mmHg 71%
    13:00 +19°C° 0.2 mm 3 m/s 737 mmHg 71%
    14:00 +19°C° 0.2 mm 3 m/s 737 mmHg 72%
    15:00 +19°C° 0.2 mm 3 m/s 737 mmHg 72%
    16:00 +19°C° 0.1 mm 3 m/s 737 mmHg 74%
    17:00 +19°C° 0.1 mm 3 m/s 737 mmHg 76%
    18:00 +19°C° 0.1 mm 3 m/s 737 mmHg 78%
    19:00 +17°C° 0 mm 3 m/s 737 mmHg 82%
    20:00 +16°C° 0 mm 2 m/s 737 mmHg 87%
    21:00 +15°C° 0 mm 2 m/s 737 mmHg 91%
    22:00 +14°C° 0 mm 2 m/s 736 mmHg 92%
    23:00 +14°C° 0 mm 2 m/s 736 mmHg 92%

    2 Julho, Terça-feira

    Tempo Temperatura Precipitação Vento Pressão Humidade
    00:00 +13°C° 0 mm 2 m/s 736 mmHg 93%
    01:00 +13°C° 0 mm 2 m/s 736 mmHg 93%
    02:00 +12°C° 0 mm 3 m/s 736 mmHg 94%
    03:00 +11°C° 0 mm 3 m/s 735 mmHg 94%
    04:00 +12°C° 0 mm 3 m/s 735 mmHg 92%
    05:00 +13°C° 0 mm 3 m/s 735 mmHg 91%
    06:00 +13°C° 0 mm 4 m/s 735 mmHg 89%
    07:00 +15°C° 0 mm 4 m/s 734 mmHg 84%
    08:00 +17°C° 0 mm 4 m/s 734 mmHg 80%
    09:00 +17°C° 0 mm 5 m/s 734 mmHg 75%
    10:00 +19°C° 0 mm 5 m/s 734 mmHg 72%
    11:00 +20°C° 0 mm 6 m/s 733 mmHg 69%
    12:00 +21°C° 0 mm 6 m/s 733 mmHg 66%
    13:00 +21°C° 0 mm 6 m/s 733 mmHg 66%
    14:00 +22°C° 0 mm 6 m/s 732 mmHg 66%
    15:00 +22°C° 0 mm 6 m/s 732 mmHg 66%
    16:00 +21°C° 0.1 mm 5 m/s 732 mmHg 71%
    17:00 +20°C° 0.1 mm 4 m/s 731 mmHg 76%
    18:00 +19°C° 0.1 mm 4 m/s 731 mmHg 82%
    19:00 +18°C° 0 mm 3 m/s 731 mmHg 84%
    20:00 +18°C° 0 mm 3 m/s 731 mmHg 86%
    21:00 +17°C° 0 mm 2 m/s 731 mmHg 88%
    22:00 +17°C° 0 mm 3 m/s 730 mmHg 87%
    23:00 +17°C° 0 mm 3 m/s 730 mmHg 85%
    Mostrar mais